Temperature
3 3 3 3 3 2 2 4 4 6 5 6 6 6 4 4 3 2 2 2 2 2 2 2 2 2 1 1 1 1 1 0 1 1 0 0 0 0 0 0 -0 -0 -0 -0
2 2 2 2 3 3 3 3 4 4 5 6 5 4 4 3 2 2 2 2 1 1 1 1 1 1 1 1 1 0 0 0 0 -0 -0 -0 -0 -0 -0 -1 -1 -1 -1 -1
3 2 1 3 3 3 3 3 4 4 6 6 5 4 3 3 2 2 2 1 1 1 1 1 1 1 1 0 0 -0 -0 -0 -1 -1 -1 -1 -1 -1 -1 -1 -1 -1 -1 -1
2 2 3 5 3 3 3 3 3 4 4 4 4 3 2 2 2 2 1 1 1 1 0 0 0 0 0 -0 -0 -0 -1 -1 -1 -1 -1 -1 -1 -1 -1 -1 -2 -2 -2 -2
1 3 4 5 3 2 2 3 3 3 3 2 2 2 2 2 2 1 1 1 1 1 0 -0 -0 -0 -0 -1 -1 -1 -1 -1 -1 -1 -2 -2 -2 -2 -2 -2 -2 -2 -2 -2
1 2 3 5 2 1 2 3 3 2 2 2 1 3 4 2 1 1 1 1 0 -0 -0 -1 -0 -1 -1 -1 -1 -1 -1 -1 -2 -2 -2 -2 -2 -2 -2 -2 -2 -2 -2 -2
1 2 3 3 1 1 3 4 2 1 1 0 1 2 1 1 1 0 0 0 -0 -0 -1 -1 -1 -1 -1 -1 -1 -2 -2 -2 -2 -2 -2 -2 -2 -2 -3 -3 -3 -3 -3 -3
1 1 3 2 1 2 3 2 1 1 0 0 0 0 0 0 -0 -0 -0 -0 -1 -1 -1 -1 -1 -1 -1 -2 -2 -2 -2 -2 -2 -2 -2 -2 -2 -3 -3 -3 -3 -3 -3 -3
2 3 2 1 1 1 1 1 1 0 0 0 -0 -0 -1 -1 -1 -1 -1 -1 -1 -1 -1 -1 -2 -2 -2 -2 -2 -2 -3 -3 -3 -3 -3 -3 -3 -3 -3 -3 -4 -4 -4 -4
-0 1 1 1 1 1 1 1 1 1 0 -0 -1 -1 -1 -1 -1 -1 -1 -1 -2 -2 -2 -2 -2 -2 -2 -2 -3 -3 -3 -3 -3 -3 -3 -3 -3 -3 -3 -4 -4 -4 -4 -4
-0 1 0 0 1 1 1 0 0 0 -0 -1 -1 -1 -1 -2 -2 -2 -2 -2 -2 -2 -2 -2 -2 -2 -3 -3 -3 -3 -3 -3 -3 -3 -4 -3 -4 -4 -4 -4 -4 -4 -4 -4
2 2 1 1 1 0 0 0 -0 -0 -1 -1 -1 -1 -2 -2 -2 -2 -2 -2 -3 -3 -3 -3 -3 -3 -3 -3 -3 -3 -3 -4 -4 -4 -4 -4 -4 -4 -4 -4 -4 -4 -4 -4
0 0 0 0 0 -0 -0 -0 -1 -1 -1 -1 -2 -2 -2 -2 -3 -3 -3 -3 -3 -3 -3 -3 -3 -3 -3 -3 -4 -4 -4 -4 -4 -4 -4 -4 -4 -4 -4 -4 -4 -4 -4 -4
-1 -1 -1 -1 -1 -1 -1 -1 -1 -1 -2 -2 -2 -2 -3 -3 -3 -3 -3 -3 -3 -3 -3 -3 -3 -3 -4 -4 -4 -4 -4 -4 -4 -4 -4 -4 -5 -5 -5 -5 -5 -4 -5 -5
-1 -1 -1 -1 -1 -1 -2 -2 -2 -2 -2 -2 -3 -3 -3 -3 -3 -3 -3 -3 -3 -3 -4 -4 -4 -4 -4 -4 -4 -4 -4 -4 -4 -5 -5 -5 -5 -5 -5 -5 -5 -5 -5 -5
-1 -2 -2 -2 -2 -2 -2 -2 -2 -2 -3 -3 -3 -3 -3 -3 -3 -3 -4 -4 -4 -4 -4 -4 -4 -4 -4 -4 -4 -5 -5 -5 -5 -5 -5 -5 -5 -5 -5 -5 -5 -5 -5 -5
-2 -2 -2 -2 -2 -2 -2 -3 -3 -3 -3 -3 -3 -3 -4 -4 -4 -4 -4 -4 -4 -4 -4 -4 -4 -4 -4 -4 -5 -5 -5 -5 -5 -5 -5 -5 -5 -5 -5 -5 -5 -6 -6 -6
-2 -2 -2 -2 -2 -2 -3 -3 -3 -3 -3 -3 -4 -4 -4 -4 -4 -4 -4 -4 -4 -4 -4 -4 -4 -5 -5 -5 -5 -5 -5 -5 -5 -5 -5 -5 -5 -5 -5 -5 -6 -6 -6 -6
-2 -2 -2 -3 -3 -3 -3 -3 -3 -3 -4 -4 -4 -4 -4 -4 -4 -4 -4 -4 -4 -4 -4 -5 -5 -5 -5 -5 -5 -5 -5 -5 -5 -5 -6 -6 -6 -6 -6 -6 -6 -6 -6 -6
-2 -3 -3 -3 -3 -3 -3 -3 -3 -4 -4 -4 -4 -4 -4 -4 -4 -4 -4 -4 -5 -5 -5 -5 -5 -5 -5 -5 -5 -5 -5 -5 -5 -6 -6 -6 -6 -6 -6 -6 -6 -6 -6 -6
-3 -3 -3 -3 -3 -3 -4 -4 -4 -4 -4 -4 -4 -4 -4 -4 -5 -5 -5 -5 -5 -5 -5 -5 -5 -5 -5 -5 -5 -5 -6 -6 -6 -6 -6 -6 -6 -6 -6 -6 -6 -6 -6 -6
-3 -3 -3 -4 -4 -4 -4 -4 -4 -4 -4 -4 -4 -4 -4 -5 -5 -5 -5 -5 -5 -5 -5 -5 -5 -5 -5 -5 -6 -6 -6 -6 -6 -6 -6 -6 -6 -6 -6 -6 -6 -6 -6 -6
-4 -4 -4 -4 -4 -4 -4 -4 -5 -5 -4 -4 -5 -5 -5 -5 -5 -5 -5 -5 -5 -5 -5 -5 -5 -5 -6 -6 -6 -6 -6 -6 -6 -6 -6 -6 -6 -6 -6 -6 -6 -6 -6 -6
-4 -4 -4 -4 -5 -5 -5 -5 -5 -5 -5 -5 -5 -5 -5 -5 -5 -5 -5 -5 -5 -5 -5 -5 -5 -6 -6 -6 -6 -6 -6 -6 -6 -6 -6 -6 -6 -6 -6 -6 -6 -6 -6 -6
-4 -4 -5 -5 -5 -5 -5 -5 -5 -5 -5 -5 -5 -5 -5 -5 -5 -5 -5 -5 -5 -5 -5 -6 -6 -6 -6 -6 -6 -6 -6 -6 -6 -6 -6 -6 -6 -6 -6 -6 -6 -6 -6 -6
-4 -5 -5 -5 -5 -5 -5 -5 -5 -5 -5 -5 -5 -5 -5 -5 -5 -5 -5 -5 -5 -6 -6 -6 -6 -6 -6 -6 -6 -6 -6 -6 -6 -6 -6 -6 -6 -6 -6 -6 -6 -6 -6 -6
-5 -5 -5 -5 -5 -6 -6 -5 -5 -5 -5 -5 -5 -5 -6 -5 -6 -6 -6 -6 -6 -6 -6 -6 -6 -6 -6 -6 -6 -6 -6 -6 -6 -6 -6 -6 -6 -6 -6 -6 -6 -6 -6 -6
Wind_Speed
10 9 8 10 12 12 14 15 13 14 15 15 12 10 9 8 7 6 6 5 5 5 5 4 3 3 3 3 3 4 4 4 4 4 4 4 4 4 4 4 4 4 4 4
8 8 9 13 16 16 17 17 18 19 19 15 11 9 8 8 8 8 7 7 6 5 5 4 4 4 3 3 3 4 4 4 4 4 4 4 4 4 4 4 3 3 4 4
6 5 7 12 13 14 12 13 14 17 15 9 9 9 9 8 8 8 8 7 6 6 5 5 4 4 4 4 4 4 4 4 4 4 4 4 4 4 4 4 3 3 4 4
5 4 10 5 1 7 11 12 14 14 12 10 10 9 8 8 7 7 7 7 6 6 5 4 4 4 3 3 4 3 4 4 4 4 4 4 4 4 4 3 3 4 3 3
4 7 11 7 4 5 7 9 10 12 11 9 7 7 7 5 6 7 7 7 6 5 4 4 4 4 3 3 3 4 4 4 4 4 4 4 4 4 3 3 3 3 3 3
5 7 8 4 1 2 4 7 4 6 7 6 4 6 5 2 4 5 5 4 4 4 4 4 4 3 3 4 4 4 4 4 4 4 4 4 4 3 3 3 3 3 3 3
9 9 9 3 2 3 4 4 1 3 5 5 6 7 5 5 5 5 5 4 4 4 4 4 3 3 3 4 5 4 4 3 3 3 3 3 3 3 3 3 3 3 2 2
7 8 9 4 5 5 5 4 4 5 6 7 8 7 6 6 5 5 4 4 4 3 4 3 3 3 3 4 4 3 3 3 3 3 2 2 2 2 3 3 3 2 2 2
8 8 4 5 6 6 4 6 7 6 7 7 7 7 6 6 6 5 5 4 3 3 4 3 3 3 4 3 2 2 2 2 2 2 2 2 2 2 2 2 2 2 1 1
8 11 10 9 9 8 8 8 8 7 7 7 7 7 6 6 6 5 4 4 3 3 3 3 3 3 3 3 2 2 2 2 1 1 1 1 2 2 2 2 2 2 2 2
10 11 9 8 9 9 8 7 7 7 7 7 7 7 6 6 6 5 4 3 3 4 4 4 3 3 3 2 2 2 2 2 1 1 1 1 1 2 2 3 3 3 2 2
9 7 6 7 6 7 8 8 8 7 7 6 6 6 6 6 5 5 4 3 3 4 4 4 3 3 3 2 2 2 2 2 1 1 1 1 1 1 1 2 2 3 3 2
7 6 7 8 8 7 7 7 7 7 6 6 6 5 5 5 4 4 4 4 4 4 4 4 3 3 3 2 2 3 3 2 2 2 2 1 1 1 0 0 0 1 1 1
7 6 7 7 7 6 6 5 5 5 5 5 4 4 4 4 4 4 4 4 4 4 4 4 3 3 3 3 3 3 3 3 2 2 2 2 2 2 1 1 0 1 1 0
7 7 7 6 6 5 4 4 4 4 4 3 3 3 3 4 4 4 4 3 3 3 3 3 3 3 3 2 3 3 2 2 2 2 2 2 2 2 1 1 1 0 1 1
4 5 6 6 6 5 4 4 5 5 4 3 3 3 3 3 3 4 3 3 3 3 3 3 4 3 2 2 2 2 2 3 2 2 2 2 2 2 1 1 1 1 0 1
5 5 5 6 6 5 5 5 5 5 4 4 4 3 2 2 2 3 3 3 3 4 4 4 3 3 3 3 3 2 2 2 3 2 2 2 2 2 1 1 1 1 1 1
7 7 6 6 6 6 6 5 5 4 4 4 3 2 3 3 3 3 3 3 2 3 3 3 2 2 3 3 2 2 2 2 2 2 2 2 2 2 1 1 1 1 1 1
5 6 5 5 5 5 5 5 4 4 3 3 3 3 4 4 3 3 2 2 2 3 3 2 2 2 3 3 3 2 3 3 3 2 2 3 2 2 1 1 1 1 1 1
3 4 4 4 4 4 4 4 3 3 3 3 3 3 3 3 3 2 2 3 3 3 2 2 2 3 3 3 3 3 3 3 3 3 2 2 2 2 2 1 1 1 1 1
3 3 3 3 3 3 3 3 3 3 3 3 3 3 3 3 2 2 2 3 2 2 2 3 2 2 3 3 3 3 3 3 3 3 3 2 2 2 2 1 1 1 1 1
3 3 3 3 3 3 2 2 2 3 2 3 3 3 2 2 2 2 3 3 2 2 2 2 2 3 3 3 3 3 3 3 3 2 2 2 2 2 2 2 1 1 1 1
3 3 3 3 3 2 2 2 2 3 3 3 3 4 4 3 2 2 2 2 1 2 1 2 3 4 5 3 3 3 3 3 3 2 2 2 2 2 2 2 2 2 2 2
3 3 3 2 2 2 2 2 2 2 2 3 3 4 3 2 2 2 1 1 1 1 1 2 4 4 4 2 3 3 2 2 2 2 2 2 2 2 2 2 2 2 2 2
3 2 3 3 3 3 3 2 2 2 2 2 2 2 2 2 2 1 1 1 2 1 1 3 3 4 3 2 2 2 2 2 2 2 2 2 2 2 1 1 2 2 2 2
3 3 3 3 3 3 2 2 2 2 1 1 1 1 1 1 1 1 1 2 2 2 1 1 2 2 2 2 2 2 2 2 2 2 2 2 2 2 1 1 2 2 2 2
2 2 2 2 2 2 2 3 2 2 2 2 1 1 1 1 1 2 2 2 2 1 1 1 1 2 2 2 2 2 2 2 2 2 2 2 1 1 1 2 1 1 2 2
Wind_Direction
264 271 259 252 245 228 228 235 246 257 262 269 273 275 275 272 273 270 266 262 262 269 278 283 281 274 265 268 267 261 254 251 251 254 252 247 242 242 243 241 241 243 245 250
271 263 261 264 254 240 239 243 248 260 269 271 274 273 269 268 266 268 267 268 264 265 272 276 274 272 268 270 273 266 258 256 259 258 252 243 240 238 240 240 240 237 238 242
267 281 280 263 245 229 231 233 237 248 259 274 277 275 272 267 261 262 265 269 264 262 265 268 268 266 265 269 272 263 263 263 264 261 253 248 241 235 235 239 240 239 239 240
271 275 253 263 244 227 236 247 240 251 265 272 276 283 277 264 254 260 264 264 263 262 267 269 268 269 271 270 270 263 262 266 263 258 254 251 244 239 240 240 239 239 239 242
242 259 272 274 241 223 234 265 244 246 260 274 289 288 273 255 255 261 265 267 262 260 264 264 265 268 265 267 267 261 260 262 261 256 250 247 244 246 245 240 241 241 235 238
231 249 258 275 235 227 241 268 235 238 258 269 273 273 280 289 281 277 275 264 258 263 262 260 263 259 254 265 266 262 264 265 264 255 245 243 244 246 246 241 242 240 239 242
236 250 264 274 175 178 234 288 343 257 263 258 255 274 295 294 292 287 281 270 262 259 259 261 260 249 249 258 262 267 269 266 263 258 248 244 244 240 235 236 239 235 239 247
217 235 255 174 164 212 266 307 286 275 270 266 272 286 286 283 282 282 279 271 262 264 270 270 256 245 251 259 269 271 265 260 261 261 254 242 235 233 229 223 222 226 232 257
220 240 286 206 230 250 268 275 278 276 279 271 274 278 279 279 276 274 273 272 270 267 275 276 258 249 255 269 276 265 261 259 261 261 247 230 223 222 217 211 215 220 222 248
256 262 264 258 260 264 265 269 277 276 274 266 268 272 273 275 274 272 271 269 269 263 267 275 269 266 267 275 267 249 247 253 251 248 241 220 216 215 207 207 209 211 222 241
255 271 280 263 252 264 274 278 277 278 274 269 266 265 265 268 271 274 275 274 266 259 263 269 269 273 278 273 254 239 237 237 236 238 236 218 215 216 216 219 219 223 232 240
248 251 251 270 274 270 268 271 272 273 274 272 266 261 261 262 264 269 270 273 268 265 265 265 255 262 267 258 244 229 223 222 224 226 221 211 205 198 203 233 244 254 262 261
259 276 273 280 282 278 272 273 276 270 265 269 269 256 251 255 257 261 266 267 264 265 269 266 252 254 256 249 238 228 220 221 218 214 211 208 202 191 173 87 181 272 274 271
256 266 273 274 281 286 282 282 282 279 276 268 260 251 243 247 251 254 259 264 266 267 269 262 251 253 250 238 235 231 220 217 214 207 204 201 198 193 185 176 179 351 331 291
249 248 259 277 284 288 289 283 277 275 275 276 262 243 235 240 251 261 268 269 264 262 263 256 247 251 242 228 227 226 218 209 201 195 197 195 189 182 174 171 167 137 3 2
253 256 256 263 269 278 277 268 265 267 265 262 260 255 248 245 253 264 265 255 252 259 260 252 250 247 229 220 223 220 210 202 201 195 190 186 181 176 172 169 167 181 257 319
233 251 259 267 267 269 266 262 259 258 256 252 253 255 251 250 259 266 271 268 264 265 263 249 246 237 221 214 215 212 197 189 190 188 183 184 180 180 177 178 185 206 247 273
237 246 246 251 256 260 266 265 259 252 248 246 242 239 235 236 246 258 269 276 284 285 275 255 235 217 208 205 209 199 187 181 180 179 179 179 178 179 177 181 190 210 245 267
245 246 252 254 254 251 252 254 251 247 240 224 220 231 242 248 251 257 263 262 262 273 275 258 226 200 198 202 202 189 178 173 172 173 174 171 169 168 175 184 196 216 235 251
253 250 248 254 254 245 247 253 244 236 230 214 216 229 244 254 254 253 257 261 262 267 259 234 207 192 190 194 192 184 178 175 172 171 169 169 172 178 182 187 199 216 238 256
257 255 248 248 256 255 248 242 231 230 228 212 215 227 240 255 251 246 250 267 279 259 230 207 191 186 189 185 185 180 175 173 173 175 175 176 179 182 186 196 208 222 237 254
264 255 252 249 249 264 268 248 228 223 222 219 222 225 229 242 246 258 265 261 264 225 210 195 185 186 187 176 169 166 166 169 172 173 176 180 183 188 197 208 218 235 247 252
264 258 254 248 246 257 269 250 229 219 220 221 222 223 227 235 233 236 266 260 236 217 205 190 188 184 169 160 161 165 168 171 176 181 183 186 190 196 203 214 225 237 249 258
263 256 251 247 222 218 239 255 247 236 231 236 232 228 222 226 245 247 246 224 208 204 198 184 181 173 164 164 164 166 171 175 179 180 177 181 188 197 204 213 228 244 251 260
250 241 231 219 221 232 236 236 240 235 229 239 244 236 226 222 220 213 187 189 184 170 155 161 162 167 166 165 167 167 172 177 174 169 173 180 186 195 205 214 226 243 252 258
244 242 243 242 240 237 228 219 224 228 218 222 241 233 208 184 170 157 150 154 156 146 142 151 155 159 163 164 165 166 168 169 170 173 180 186 191 197 209 227 244 252 259 261
241 240 240 245 241 227 220 216 218 220 209 197 204 205 163 149 145 142 141 147 150 146 144 153 157 156 162 165 165 166 165 164 168 173 179 187 196 208 222 234 246 254 258 261
Height
1477 1476 1477 1475 1475 1477 1477 1469 1464 1452 1452 1448 1449 1450 1451 1451 1450 1450 1450 1450 1449 1448 1446 1446 1445 1444 1443 1442 1442 1441 1441 1440 1439 1438 1438 1437 1437 1436 1436 1436 1436 1436 1436 1436
1478 1475 1475 1472 1466 1466 1467 1464 1460 1456 1450 1446 1447 1448 1448 1448 1447 1447 1447 1446 1445 1444 1443 1442 1441 1440 1440 1439 1438 1438 1437 1436 1435 1435 1434 1433 1433 1433 1432 1432 1432 1432 1432 1432
1469 1473 1473 1460 1454 1456 1456 1454 1453 1449 1443 1443 1444 1445 1445 1445 1444 1444 1443 1443 1442 1441 1440 1439 1438 1437 1436 1436 1435 1434 1433 1432 1432 1431 1430 1430 1429 1429 1429 1428 1429 1429 1429 1429
1472 1472 1462 1445 1450 1449 1449 1447 1447 1444 1443 1442 1442 1442 1442 1441 1441 1440 1439 1439 1438 1438 1437 1436 1435 1434 1433 1432 1431 1430 1430 1429 1428 1427 1426 1426 1425 1425 1425 1425 1425 1425 1425 1425
1472 1462 1448 1444 1447 1449 1448 1443 1441 1442 1441 1441 1441 1440 1438 1438 1437 1437 1436 1435 1435 1434 1433 1432 1431 1430 1429 1428 1428 1427 1426 1425 1424 1423 1423 1422 1422 1422 1422 1422 1422 1422 1422 1422
1470 1460 1447 1439 1445 1446 1447 1439 1438 1438 1439 1439 1440 1436 1433 1434 1434 1433 1433 1432 1431 1430 1429 1428 1428 1427 1426 1425 1424 1423 1423 1422 1421 1420 1420 1419 1419 1419 1419 1419 1419 1419 1419 1419
1465 1457 1443 1442 1445 1446 1443 1435 1437 1437 1437 1437 1437 1435 1433 1432 1431 1430 1429 1428 1428 1427 1426 1425 1424 1423 1422 1422 1421 1420 1419 1418 1418 1417 1417 1416 1416 1416 1416 1416 1416 1416 1416 1416
1459 1455 1443 1441 1443 1441 1437 1436 1435 1434 1434 1434 1432 1431 1430 1429 1428 1427 1426 1425 1424 1423 1422 1422 1421 1420 1419 1419 1418 1417 1416 1415 1415 1414 1414 1414 1414 1414 1414 1414 1414 1414 1414 1414
1447 1440 1436 1437 1436 1436 1435 1434 1433 1432 1431 1430 1429 1427 1426 1425 1424 1423 1422 1421 1421 1420 1419 1418 1418 1417 1416 1416 1415 1414 1413 1413 1412 1412 1412 1411 1411 1411 1411 1411 1411 1411 1412 1412
1444 1435 1434 1433 1433 1432 1432 1431 1430 1429 1428 1427 1425 1424 1423 1422 1421 1420 1419 1418 1417 1417 1416 1415 1415 1414 1414 1413 1412 1412 1411 1410 1410 1410 1409 1409 1409 1409 1409 1409 1409 1409 1409 1410
1438 1432 1431 1429 1428 1428 1428 1427 1426 1425 1424 1423 1422 1420 1419 1418 1417 1417 1416 1415 1414 1414 1413 1412 1412 1411 1411 1410 1410 1409 1408 1408 1408 1407 1407 1407 1407 1407 1407 1407 1407 1408 1408 1408
1427 1426 1427 1425 1424 1424 1423 1423 1422 1421 1419 1419 1418 1416 1415 1414 1414 1413 1412 1411 1411 1410 1409 1409 1409 1408 1408 1408 1407 1407 1406 1406 1405 1405 1405 1405 1405 1405 1405 1406 1406 1406 1406 1406
1424 1422 1422 1421 1420 1420 1419 1418 1417 1416 1415 1414 1413 1413 1411 1410 1410 1410 1409 1408 1408 1407 1406 1406 1405 1405 1405 1405 1404 1404 1404 1403 1403 1403 1403 1403 1403 1403 1403 1404 1404 1405 1405 1405
1420 1420 1418 1417 1417 1416 1415 1414 1413 1412 1411 1410 1409 1408 1408 1407 1406 1406 1406 1405 1405 1404 1403 1403 1402 1402 1402 1402 1402 1402 1401 1401 1401 1401 1401 1401 1402 1402 1402 1402 1402 1402 1403 1403
1415 1416 1415 1414 1413 1412 1411 1410 1409 1408 1407 1406 1406 1405 1405 1404 1403 1403 1403 1402 1402 1401 1401 1400 1400 1400 1399 1399 1399 1399 1399 1399 1399 1400 1400 1400 1400 1401 1401 1401 1401 1401 1401 1402
1411 1411 1411 1410 1409 1408 1407 1406 1406 1405 1404 1403 1403 1402 1402 1401 1400 1400 1400 1400 1399 1399 1398 1397 1397 1397 1397 1397 1397 1397 1397 1397 1398 1398 1398 1399 1399 1400 1400 1400 1400 1400 1400 1401
1407 1407 1406 1406 1405 1404 1404 1403 1402 1402 1401 1400 1400 1399 1399 1398 1398 1398 1397 1397 1397 1396 1396 1395 1394 1394 1394 1394 1395 1395 1395 1395 1396 1396 1397 1398 1398 1399 1399 1399 1400 1400 1400 1400
1403 1403 1403 1402 1402 1401 1400 1400 1399 1399 1398 1398 1397 1397 1396 1396 1395 1395 1395 1394 1394 1394 1393 1393 1392 1392 1392 1392 1393 1393 1393 1394 1394 1395 1396 1397 1398 1398 1399 1399 1399 1399 1399 1399
1400 1399 1399 1399 1398 1398 1397 1396 1396 1395 1395 1395 1394 1394 1394 1393 1393 1392 1392 1392 1391 1391 1390 1390 1390 1390 1390 1391 1391 1392 1392 1393 1393 1394 1395 1396 1397 1398 1398 1398 1398 1398 1398 1398
1396 1396 1395 1395 1395 1394 1394 1393 1393 1392 1392 1392 1391 1391 1391 1391 1391 1390 1389 1389 1389 1389 1388 1388 1388 1388 1389 1389 1390 1390 1391 1392 1393 1394 1394 1395 1396 1397 1397 1397 1398 1398 1398 1397
1393 1392 1392 1391 1391 1391 1390 1390 1390 1389 1389 1389 1389 1389 1389 1389 1388 1388 1387 1387 1387 1387 1386 1386 1387 1387 1388 1388 1389 1389 1390 1391 1392 1393 1394 1394 1395 1396 1396 1397 1397 1397 1397 1397
1390 1389 1389 1388 1388 1387 1387 1387 1387 1386 1386 1386 1386 1386 1386 1386 1386 1386 1386 1385 1385 1385 1385 1385 1386 1386 1387 1387 1388 1388 1389 1390 1391 1392 1393 1394 1394 1395 1395 1396 1396 1396 1396 1396
1387 1386 1386 1385 1385 1384 1384 1384 1384 1384 1384 1384 1384 1384 1384 1384 1384 1384 1383 1384 1384 1384 1384 1384 1385 1385 1386 1386 1387 1388 1389 1389 1390 1391 1392 1393 1394 1394 1395 1395 1395 1395 1395 1395
1384 1383 1383 1383 1382 1382 1381 1381 1381 1381 1381 1382 1382 1382 1382 1382 1382 1382 1382 1382 1382 1383 1383 1383 1384 1384 1385 1386 1386 1387 1388 1389 1390 1391 1392 1392 1393 1394 1394 1394 1394 1394 1394 1394
1381 1380 1380 1380 1380 1379 1379 1379 1379 1379 1379 1379 1380 1380 1380 1380 1380 1381 1381 1381 1381 1382 1382 1382 1383 1384 1384 1385 1386 1387 1388 1388 1389 1390 1391 1392 1392 1393 1393 1394 1394 1393 1393 1393
1378 1378 1377 1377 1377 1377 1377 1377 1377 1377 1377 1377 1378 1378 1378 1379 1379 1379 1380 1380 1381 1381 1381 1382 1383 1383 1384 1385 1385 1386 1387 1388 1389 1390 1390 1391 1392 1392 1393 1393 1393 1393 1392 1392
1376 1375 1375 1374 1374 1374 1375 1375 1375 1375 1375 1376 1376 1377 1377 1377 1378 1378 1379 1379 1380 1380 1381 1382 1382 1383 1384 1384 1385 1386 1387 1388 1388 1389 1390 1390 1391 1391 1392 1392 1392 1392 1391 1391